Change the Weather History Date:

Wednesday, July 24, 2013

  Actual Average Record
Temperature  
Mean Temperature 82 °F 82 °F  
Max Temperature 92 °F 94 °F 106 °F (1952)
Min Temperature 71 °F 70 °F 60 °F (2007)
Degree Days  
Heating Degree Days 0 0  
Month to date heating degree days 0 0  
Since 1 June heating degree days 0 0  
Since 1 July heating degree days 0 0  
Cooling Degree Days 17 17  
Month to date cooling degree days 354 400  
Year to date cooling degree days 955 1091  
Since 1 June cooling degree days 746 808  
Growing Degree Days 31 (Base 50)    
Moisture  
Dew Point 71 °F    
Average Humidity 75    
Maximum Humidity 94    
Minimum Humidity 56    
Precipitation  
Precipitation 0.04 in 0.15 in 3.64 in (1986)
Month to date precipitation 7.26 3.31  
Year to date precipitation 37.69 25.53  
Sea Level Pressure  
Sea Level Pressure 29.81 in    
Wind  
Wind Speed 4 mph (SW)    
Max Wind Speed 18 mph    
Max Gust Speed 22 mph    
Visibility 10 miles    
Events Rain , Thunderstorm    
T = Trace of Precipitation, MM = Missing Value Source: NWS Daily Summary

Daily Weather History Graph

Daily Weather History Graph

Search for Another Location

Airport or City:

Trip Planner

Search our weather history database for the weather conditions in past years. The results will help you decide how hot, cold, wet, or windy it might be!

Date:

Astronomy

Jul. 24, 2013 Rise Set
Actual Time 6:35 AM EDT 8:33 PM EDT
Civil Twilight 6:07 AM EDT 9:00 PM EDT
Nautical Twilight 5:33 AM EDT 9:34 PM EDT
Astronomical Twilight 4:58 AM EDT 10:09 PM EDT
Moon 9:49 PM EDT (7/24) 8:44 AM EDT (7/24)
Length of Visible Light 14h 53m
Length of Day
13h 57m
Waning Gibbous, 95% of the Moon is Illuminated
Jul 24
Waning Gibbous
Jul 29
Last Quarter
Aug 6
New
Aug 14
First Quarter
Aug 20
Full

Hourly Weather History & Observations

Time (EDT) Temp. Heat Index Dew Point Humidity Pressure Visibility Wind Dir Wind Speed Gust Speed Precip Events Conditions
12:53 AM 75.9 °F - 73.0 °F 91% 29.83 in 10.0 mi WSW 4.6 mph - 0.01 in   Clear
1:53 AM 73.9 °F - 71.1 °F 91% 29.82 in 10.0 mi Calm Calm - N/A   Clear
2:53 AM 73.0 °F - 71.1 °F 93% 29.80 in 10.0 mi South 3.5 mph - N/A   Clear
3:53 AM 73.0 °F - 70.0 °F 90% 29.79 in 10.0 mi SSW 4.6 mph - N/A   Clear
4:53 AM 72.0 °F - 70.0 °F 93% 29.79 in 10.0 mi SW 4.6 mph - 0.01 in   Clear
5:53 AM 72.0 °F - 70.0 °F 93% 29.79 in 10.0 mi Calm Calm - 0.01 in   Clear
6:53 AM 72.0 °F - 70.0 °F 93% 29.81 in 10.0 mi SW 3.5 mph - 0.01 in   Clear
7:53 AM 73.9 °F - 71.1 °F 91% 29.83 in 10.0 mi West 3.5 mph - 0.01 in   Scattered Clouds
8:26 AM 73.4 °F - 71.6 °F 94% 29.84 in 10.0 mi West 4.6 mph - N/A   Mostly Cloudy
8:53 AM 73.9 °F - 71.1 °F 91% 29.83 in 10.0 mi SW 3.5 mph - N/A   Mostly Cloudy
9:53 AM 75.9 °F - 71.1 °F 85% 29.83 in 10.0 mi West 5.8 mph - 0.00 in Rain Light Rain
10:53 AM 79.0 °F - 71.1 °F 77% 29.82 in 10.0 mi WNW 4.6 mph - 0.00 in   Mostly Cloudy
11:46 AM 80.6 °F 84.6 °F 71.6 °F 74% 29.83 in 10.0 mi Calm Calm - N/A   Mostly Cloudy
11:53 AM 81.0 °F 85.2 °F 72.0 °F 74% 29.83 in 10.0 mi Calm Calm - N/A   Scattered Clouds
11:55 AM 82.4 °F 87.2 °F 71.6 °F 70% 29.83 in 10.0 mi Variable 4.6 mph - N/A   Scattered Clouds
12:53 PM 84.9 °F 91.4 °F 73.0 °F 67% 29.83 in 10.0 mi WNW 4.6 mph - N/A   Scattered Clouds
1:53 PM 88.0 °F 94.7 °F 72.0 °F 59% 29.81 in 10.0 mi Variable 3.5 mph - N/A   Scattered Clouds
2:53 PM 90.0 °F 96.9 °F 72.0 °F 55% 29.79 in 10.0 mi Variable 3.5 mph - N/A   Scattered Clouds
3:53 PM 89.1 °F 95.0 °F 71.1 °F 55% 29.78 in 10.0 mi SW 4.6 mph - N/A   Mostly Cloudy
4:53 PM 88.0 °F 93.8 °F 71.1 °F 57% 29.75 in 10.0 mi WSW 4.6 mph - N/A   Mostly Cloudy
5:53 PM 88.0 °F 95.6 °F 73.0 °F 61% 29.75 in 10.0 mi Calm Calm - N/A   Mostly Cloudy
6:21 PM 84.2 °F 92.3 °F 75.2 °F 74% 29.76 in 10.0 mi WNW 18.4 mph 21.9 mph 0.00 in Rain , Thunderstorm Light Thunderstorms and Rain
6:53 PM 75.9 °F - 69.1 °F 79% 29.76 in 10.0 mi SW 8.1 mph - 0.02 in Rain , Thunderstorm Light Rain
7:16 PM 75.2 °F - 68.0 °F 78% 29.77 in 10.0 mi Calm Calm - N/A   Clear
7:41 PM 73.4 °F - 69.8 °F 88% 29.82 in 10.0 mi ESE 11.5 mph 17.3 mph N/A Thunderstorm Clear
7:53 PM 75.0 °F - 70.0 °F 84% 29.81 in 10.0 mi SE 9.2 mph - N/A   Mostly Cloudy
8:36 PM 73.4 °F - 69.8 °F 88% 29.84 in 10.0 mi South 5.8 mph - 0.01 in Rain , Thunderstorm Light Rain
8:51 PM 73.4 °F - 69.8 °F 88% 29.84 in 10.0 mi WSW 4.6 mph - 0.01 in   Overcast
8:53 PM 73.0 °F - 70.0 °F 90% 29.83 in 10.0 mi WSW 4.6 mph - 0.01 in Rain Light Rain
9:53 PM 73.0 °F - 71.1 °F 93% 29.83 in 10.0 mi South 3.5 mph - 0.01 in   Partly Cloudy
10:53 PM 73.0 °F - 70.0 °F 90% 29.83 in 10.0 mi Calm Calm - N/A   Clear
11:40 PM 73.4 °F - 69.8 °F 88% 29.83 in 10.0 mi Calm Calm - 0.01 in   Partly Cloudy
11:53 PM 71.1 °F - 70.0 °F 96% 29.83 in 10.0 mi SSE 3.5 mph - 0.02 in   Partly Cloudy